Location: Marysville Observatory
(48.1092°N, 122.1645°W)
Time: 17:13:01
(UTC-07:00)

ISS - Visible Passes

Search period start: 25 September 2016 00:00
Search period end: 05 October 2016 00:00
Orbit: 401 x 409 km, 51.6° (Epoch: 26 September)

Date Brightness Start Highest point End Pass type
(mag) Time Alt. Az. Time Alt. Az. Time Alt. Az.
28 Sep -1.1 20:48:38 10° SSW 20:49:30 16° SSW 20:49:30 16° SSW visible
29 Sep -1.8 19:57:12 10° S 19:59:38 19° SE 20:00:03 19° SE visible
29 Sep -0.3 21:32:31 10° WSW 21:32:45 12° WSW 21:32:45 12° WSW visible
30 Sep -2.9 20:40:28 10° SW 20:43:07 50° SSW 20:43:07 50° SSW visible
01 Oct -2.7 19:48:35 10° SW 19:51:38 38° SE 19:53:21 21° E visible
01 Oct -0.8 21:24:49 10° W 21:26:01 20° W 21:26:01 20° W visible
02 Oct -3.4 20:32:35 10° WSW 20:35:51 77° NNW 20:36:06 70° NNE visible
03 Oct -3.4 19:40:27 10° WSW 19:43:41 72° SSE 19:46:06 17° ENE visible
03 Oct -1.0 21:17:10 10° W 21:18:46 24° WNW 21:18:46 24° WNW visible
04 Oct -2.8 20:24:51 10° W 20:28:04 52° NNW 20:28:40 44° NNE visible
